Flag for Canada Weather past 2 weeks in Halifax, Nova Scotia, Canada

Now
59 °F

Passing clouds.


Feels Like: 60 °F
Forecast: 58 / 72 °F
Wind: 3 mph from North

Location: Halifax International Airport

Current Time: Aug 1, 2014 at 7:15:27 AM

Latest Report: Aug 1, 2014 at 6:00 AM


Visibility: 15 mi

Pressure: 30.22 "Hg

Humidity: 77%

Dew point: 52 °F

Location of HalifaxLocation

Historic Weather in Halifax — Graph

°F

Halifax temperature yesterday

Maximum temperature yesterday: 75 °F (at 6:00 PM)
Minimum temperature yesterday: 64 °F (at 7:00 AM)
Average temperature yesterday: 68 °F

Past Weeks' High & Low Weather Summary

 TemperatureHumidityPressure
High81 °F (Jul 19, 5:00 PM)100% (Jul 17, 8:00 AM)30.28 "Hg (Jul 17, 8:00 AM)
Low57 °F (Jul 22, 6:00 AM)39% (Jul 18, 3:00 PM)29.71 "Hg (Jul 29, 1:00 AM)
Average67 °F82%30.00 "Hg
* Reported Jul 17 6:00 AM — Aug 1 6:00 AM, Halifax, Weather by CustomWeather, © 2014

Note: Actual official high and low records may vary slightly from our data, if they occured in-between our weather recording intervals... More about our weather records

Advertising

Halifax weather history for previous 24 hours

 ConditionsComfort  
Time TempWeatherWind HumidityBarometerVisibility
6:00 AM
Aug 1
59 °FPassing clouds.3 mph77%30.22 "Hg15 mi
5:00 AM59 °FPassing clouds.3 mph82%30.21 "Hg15 mi
4:00 AM59 °FPassing clouds.3 mph82%30.21 "Hg15 mi
3:00 AM61 °FPassing clouds.3 mph77%30.21 "Hg15 mi
2:00 AM63 °FMostly cloudy.3 mph73%30.22 "Hg15 mi
1:00 AM63 °FPassing clouds.5 mph73%30.22 "Hg15 mi
12:00 AM64 °FPassing clouds.6 mph64%30.22 "Hg15 mi
11:00 PM
Jul 31
64 °FMostly cloudy.7 mph68%30.23 "Hg15 mi
10:00 PM64 °FMostly cloudy.8 mph68%30.22 "Hg15 mi
9:00 PM64 °FPartly sunny.8 mph73%30.21 "Hg15 mi
8:00 PM70 °FPartly sunny.8 mph64%30.20 "Hg15 mi
7:00 PM73 °FScattered clouds.10 mph50%30.19 "Hg15 mi
6:00 PM75 °FBroken clouds.13 mph50%30.18 "Hg15 mi
5:00 PM73 °FBroken clouds.10 mph53%30.19 "Hg15 mi
4:00 PM73 °FOvercast.10 mph50%30.19 "Hg15 mi
3:00 PM73 °FOvercast.8 mph57%30.19 "Hg15 mi
2:00 PM73 °FPartly sunny.8 mph61%30.18 "Hg15 mi
1:00 PM73 °FPartly sunny.8 mph65%30.16 "Hg15 mi
12:00 PM72 °FPartly sunny.9 mph73%30.17 "Hg15 mi
11:00 AM68 °FPartly sunny.6 mph88%30.15 "Hg15 mi
10:47 AM68 °FPartly sunny.10 mph88%30.16 "Hg15 mi
10:00 AM68 °FFog.10 mph94%30.13 "Hg5 mi
9:00 AM66 °FFog.8 mph94%30.13 "Hg1 mi
8:00 AM64 °FFog.9 mph100%30.11 "Hg1 mi
7:47 AM64 °FFog.10 mph100%30.11 "Hg1 mi
7:04 AM64 °FFog.8 mph100%30.09 "Hg1 mi
7:00 AM64 °FSprinkles. Fog.9 mph100%30.10 "Hg2 mi
Weather by CustomWeather, © 2014

See weather overviewHow to use our weather pages